This demonstration page uses our WeatherBlox Daily Observations layout. Learn more.

Left ArrowRight Arrow

41.12389, -100.76542

Hourly Observations for November 18, 2016

Temp ( °F °C ) Dew Point ( °F °C ) Humidity (%) Winds ( mph kmh ) Pressure ( in mb ) Visibility ( mi km ) Precip ( " mm )
12:53 am 00:53 Mostly Cloudy with Snow 30 -1.1 28 -2.2 92 92 NNW 17 28 29.99 1016 1 1 0.11 2.79
1:32 am 01:32 Mostly Cloudy with Heavy Snow 29 -1.7 27 -2.8 92 92 NNW 21 33 30.09 1019 0 0 0.05 1.27
1:45 am 01:45 Mostly Cloudy with Snow 29 -1.7 27 -2.8 92 92 NNW 22 35 30.09 1019 1 1 0.08 2.03
1:53 am 01:53 Mostly Cloudy with Snow 29 -1.7 27 -2.8 92 92 NNW 24 39 30.01 1016 1 1 0.08 2.03
2:07 am 02:07 Mostly Cloudy with Light Snow 28 -2 27 -3 93 93 NNW 29 46 30.09 1019 1 2 0.00 0.00
2:19 am 02:19 Windy with Snow Likely 28 -2 27 -3 93 93 NW 28 44 30.09 1019 1 2 0.00 0.00
2:53 am 02:53 Windy with Snow Likely 29 -1.7 25 -3.9 85 85 NNW 28 44 30.06 1018 1 2 0.00 0.03
3:12 am 03:12 Windy with Snow Likely 29 -1.7 25 -3.9 85 85 NNW 30 48 30.15 1021 1 2 0.00 0.03
3:20 am 03:20 Cloudy with Light Wintry Mix 28 -2 25 -4 86 86 NNW 31 50 30.15 1021 2 2 0.00 0.00
3:49 am 03:49 Windy with Snow Likely 28 -2 25 -4 86 86 NNW 23 37 30.15 1021 3 4 0.00 0.03
3:53 am 03:53 Windy with Snow Likely 29 -1.7 25 -3.9 85 85 NW 20 31 30.10 1019 4 6 0.00 0.03
4:37 am 04:37 Cloudy with Light Wintry Mix 28 -2.2 24 -4.4 85 85 NW 22 35 30.21 1023 10 16 0.00 0.03
4:53 am 04:53 Cloudy with Light Wintry Mix 29 -1.7 23 -5 78 78 NW 20 31 30.13 1020 10 16 0.00 0.03
5:04 am 05:04 Cloudy with Light Wintry Mix 28 -2 23 -5 80 80 NW 22 35 30.24 1024 10 16 0.00 0.00
5:53 am 05:53 Partly Cloudy with Light Wintry Mix 28 -2.2 22 -5.6 78 78 NNW 22 35 30.16 1022 10 16 0.00 0.03
6:32 am 06:32 Mostly Cloudy with Light Wintry Mix 28 -2 21 -6 74 74 NW 22 35 30.27 1025 10 16 0.00 0.00
6:53 am 06:53 Cloudy 29 -1.7 23 -5 78 78 NW 26 43 30.20 1023 10 16 0.00 0.03
7:53 am 07:53 Cloudy with Light Wintry Mix 29 -1.7 22 -5.6 75 75 NW 25 41 30.25 1024 8 13 0.00 0.03
8:53 am 08:53 Partly Cloudy with Light Wintry Mix 28 -2.2 20 -6.7 72 72 NNW 22 35 30.30 1026 10 16 0.00 0.03
9:53 am 09:53 Partly Cloudy with Light Wintry Mix 29 -1.7 21 -6.1 72 72 NW 21 33 30.32 1027 10 16 0.00 0.03
10:05 am 10:05 Mostly Cloudy with Light Wintry Mix 28 -2 21 -6 74 74 NW 24 39 30.39 1029 10 16 0.00 0.00
10:17 am 10:17 Partly Cloudy with Light Wintry Mix 28 -2 21 -6 74 74 NW 21 33 30.39 1029 9 14 0.00 0.00
10:53 am 10:53 Sunny with Light Wintry Mix 29 -1.7 21 -6.1 72 72 NW 28 44 30.36 1028 3 5 0.00 0.03
11:53 am 11:53 Sunny with Light Wintry Mix 30 -1.1 21 -6.1 69 69 NW 30 48 30.38 1029 7 11 0.00 0.03
12:53 pm 12:53 Sunny 32 0 21 -6.1 64 64 NW 20 31 30.40 1029 10 16 0.00 0.03
1:53 pm 13:53 Sunny 32 0 21 -6.1 64 64 NW 18 30 30.41 1030 10 16 0.00 0.00
2:53 pm 14:53 Sunny 33 0.6 20 -6.7 58 58 NW 21 33 30.42 1030 10 16 0.00 0.00
3:53 pm 15:53 Sunny 33 0.6 19 -7.2 56 56 NW 16 26 30.45 1031 10 16 0.00 0.00
4:53 pm 16:53 Sunny 32 0 18 -7.8 56 56 NNW 15 24 30.48 1032 10 16 0.00 0.00
5:53 pm 17:53 Clear 29 -1.7 17 -8.3 61 61 NNW 10 17 30.51 1033 10 16 0.00 0.00
6:53 pm 18:53 Clear 23 -5 15 -9.4 72 72 NW 5 7 30.54 1034 10 16 0.00 0.00
7:53 pm 19:53 Clear 20 -6.7 13 -10.6 74 74 NW 9 15 30.58 1035 10 16 0.00 0.00
8:53 pm 20:53 Clear 18 -7.8 13 -10.6 81 81 NW 10 17 30.61 1037 10 16 0.00 0.00
9:53 pm 21:53 Clear 17 -8.3 12 -11.1 80 80 NW 8 13 30.62 1037 10 16 0.00 0.00
10:53 pm 22:53 Clear 13 -10.6 10 -12.2 88 88 NW 9 15 30.62 1037 10 16 0.00 0.00
11:53 pm 23:53 Clear 11 -11.7 8 -13.3 88 88 NW 7 11 30.62 1037 10 16 0.00 0.00

Powered by AerisWeather